Wind_Speed
8 12 7 10 11 8 3 6 5 4 5 16 18 13 12 6 13 13 10 13 13 13 11 13 13 10 9 9 10 9 6 5 3 1 3 5 6 7 8 9 8 8 9
15 15 13 14 5 8 13 11 4 7 7 14 14 17 6 9 12 15 15 17 14 11 10 11 13 9 8 8 8 8 7 5 4 2 1 3 5 5 6 7 6 6 6
14 16 13 12 12 8 1 6 4 6 10 8 9 11 14 10 7 16 4 10 8 8 8 11 11 9 9 9 9 8 8 7 6 3 2 1 2 4 5 6 6 6 5
13 13 14 11 10 7 5 3 3 3 5 2 2 5 5 6 5 11 12 15 8 6 8 7 9 7 7 10 7 7 8 9 9 8 6 3 2 3 4 4 4 4 3
13 13 16 7 7 7 2 5 7 3 6 7 4 6 7 7 13 6 13 8 7 10 7 9 12 9 9 5 8 7 8 9 9 9 7 6 5 4 3 3 2 2 2
15 14 16 12 9 15 8 11 3 4 7 6 7 5 8 5 4 3 10 9 11 8 9 8 7 11 11 11 7 6 8 7 8 8 8 6 4 3 3 3 2 1 0
16 16 14 9 14 13 3 7 3 3 4 3 3 8 8 5 3 8 5 13 8 10 1 1 8 9 10 9 11 9 8 7 7 7 6 5 4 2 1 1 1 1 2
15 14 13 16 13 9 8 7 3 4 12 8 8 11 7 1 7 2 6 9 14 16 15 2 5 6 9 9 9 8 8 7 6 6 6 5 3 3 1 1 1 2 3
15 14 12 10 12 14 13 10 7 9 10 6 5 3 10 6 4 4 2 6 13 13 15 20 20 7 2 5 1 5 6 5 5 5 6 4 3 3 2 2 2 3 3
13 12 13 13 8 8 9 6 10 8 8 8 2 4 8 10 8 9 11 8 3 12 16 16 21 20 6 3 6 3 5 5 2 3 5 6 4 3 2 2 2 3 3
15 12 12 13 11 11 11 10 8 6 10 12 12 10 11 8 7 7 6 10 7 10 9 15 21 24 17 15 6 5 6 7 3 4 3 3 4 4 4 4 3 3 3
13 10 10 12 13 13 13 11 11 10 11 11 10 9 9 9 6 5 10 14 13 10 6 9 18 22 23 14 10 7 8 6 6 7 5 4 4 5 5 5 5 4 3
18 10 11 13 14 15 15 13 13 12 11 11 11 11 12 14 10 14 16 18 13 10 7 4 14 22 7 13 14 7 7 7 8 8 6 6 5 5 5 4 5 4 4
14 8 9 16 15 16 16 14 14 13 12 9 10 6 9 11 13 11 10 12 12 17 5 7 13 13 16 19 17 12 8 7 8 8 7 7 7 6 5 5 5 5 6
16 13 16 18 15 20 16 15 15 12 10 9 10 14 11 10 12 10 11 10 13 19 10 3 10 16 8 21 21 12 9 8 9 8 9 9 9 8 7 7 7 7 7
19 21 21 16 16 15 16 15 14 13 12 11 13 15 16 15 13 14 15 13 19 16 17 14 14 14 18 23 28 17 17 12 11 10 11 11 11 11 12 11 8 9 9
20 21 23 21 21 18 16 14 15 14 13 13 16 17 18 18 17 18 18 18 19 21 22 12 23 22 24 24 27 21 18 14 15 15 12 14 14 14 15 15 13 12 13
19 19 19 20 18 19 18 16 16 16 16 18 17 18 19 19 19 19 20 22 23 21 24 23 19 20 23 25 25 24 22 21 17 18 18 17 16 16 16 17 18 19 18
17 17 17 16 16 15 16 17 17 17 18 19 19 19 19 19 19 21 23 25 24 24 24 23 24 26 22 22 24 24 22 24 22 20 22 20 19 18 18 18 19 20 21
16 16 16 16 16 15 15 16 16 17 18 19 20 21 21 22 24 22 23 24 26 27 26 26 26 27 26 24 26 27 22 21 23 22 21 20 20 20 21 20 19 20 19
12 13 14 14 15 16 17 18 18 20 22 21 21 22 23 24 25 26 29 29 28 29 29 29 31 28 28 22 30 28 25 20 21 24 22 22 22 22 21 21 21 22 22
19 19 19 18 19 21 25 23 20 18 19 22 23 25 27 30 32 32 33 34 34 34 35 35 33 33 30 26 25 37 37 23 21 24 26 25 26 25 24 24 23 24 26
23 24 23 22 22 24 25 25 18 21 24 27 29 31 33 36 38 39 40 39 37 35 34 34 34 34 32 28 31 35 30 32 26 27 30 30 28 27 25 25 23 25 27
29 28 26 25 24 25 20 25 24 27 29 32 35 38 42 42 42 42 43 43 39 36 31 31 34 32 35 36 35 39 41 39 37 37 36 33 31 29 26 26 27 27 28
35 32 30 27 25 26 24 26 27 29 32 37 40 44 46 44 41 39 40 41 39 38 37 37 36 34 35 36 33 37 42 40 40 47 43 40 27 38 26 26 27 30 31
37 33 32 32 30 28 25 27 29 33 37 41 42 41 39 40 41 41 42 44 45 42 45 45 47 46 42 36 35 34 34 38 39 45 42 32 10 24 21 28 31 24 32
Wind_Direction
140 132 218 147 169 117 142 268 0 71 40 30 14 47 40 346 353 13 43 52 17 9 17 27 32 38 54 63 57 47 35 16 352 207 195 197 210 230 237 245 248 257 263
171 182 168 179 125 192 157 235 138 81 4 22 27 36 71 359 347 355 334 45 12 359 16 31 30 39 61 63 53 51 52 39 43 44 191 220 227 227 234 237 245 247 251
174 168 172 173 155 249 146 173 126 139 75 8 17 7 4 15 319 324 310 44 12 10 16 18 15 34 46 56 55 59 68 80 104 90 63 351 270 251 243 228 224 220 227
174 180 170 160 189 202 204 215 259 139 181 131 318 53 11 271 22 1 28 24 341 315 53 32 12 4 32 55 51 62 74 75 95 113 113 133 169 195 191 195 209 211 205
185 185 173 194 196 185 193 233 206 155 262 163 267 122 236 348 330 347 13 341 63 332 14 25 47 29 45 58 64 53 57 68 73 86 108 121 122 118 116 133 160 184 200
195 188 193 206 171 215 189 246 235 228 284 233 249 129 230 252 323 80 360 338 65 278 356 11 48 72 64 60 58 68 74 72 73 74 78 85 96 117 137 138 138 132 74
197 194 227 176 207 224 235 191 185 207 283 242 129 197 253 268 280 120 40 331 317 307 260 1 32 17 46 58 58 62 71 71 70 72 72 73 86 92 116 195 246 249 236
199 201 206 195 197 239 223 209 225 251 24 324 305 319 332 274 147 355 21 276 333 332 13 264 95 352 6 17 37 57 73 73 70 72 72 65 60 71 75 256 252 255 263
199 204 197 192 207 210 222 249 214 225 239 238 312 287 294 295 69 24 22 265 293 295 359 6 335 156 335 348 307 45 55 66 70 58 57 57 53 48 25 346 309 277 264
200 200 205 225 222 205 233 252 239 219 226 228 232 283 275 263 246 235 256 287 268 332 349 343 333 15 331 90 308 356 51 47 28 53 39 37 45 45 32 348 309 296 292
204 210 214 206 204 220 225 236 258 248 264 238 227 250 262 266 257 260 292 305 321 329 360 326 319 340 358 65 23 325 39 34 350 2 352 6 17 20 21 8 344 322 299
202 206 219 222 221 230 246 242 248 244 250 248 255 277 278 278 241 254 281 279 266 266 296 326 318 309 319 348 335 342 20 23 349 332 312 292 325 343 343 350 358 351 349
217 226 242 230 237 242 246 254 255 253 256 248 257 272 284 286 257 238 252 269 289 301 287 277 284 311 305 337 321 345 360 351 333 333 309 287 292 324 334 327 340 343 338
221 260 268 268 252 248 255 259 261 264 260 255 258 271 291 287 290 283 281 294 300 301 291 318 314 306 284 326 312 326 314 331 315 329 320 290 284 307 329 325 311 311 310
226 251 244 260 269 261 262 260 261 266 273 283 286 290 288 287 291 275 253 258 260 285 270 213 248 288 283 290 306 318 318 300 301 296 306 302 288 279 295 302 307 307 302
231 250 262 265 259 268 271 263 264 263 265 281 295 296 297 301 300 295 285 288 277 272 289 233 241 254 265 279 283 313 304 290 292 297 299 294 286 279 277 283 289 299 301
241 242 255 263 274 277 272 263 264 265 274 280 285 289 293 291 292 292 286 282 283 277 293 285 236 252 267 262 285 290 294 285 281 292 293 294 290 284 278 271 276 287 291
250 254 253 265 267 270 266 270 268 272 275 282 285 287 288 289 289 284 281 279 282 283 284 284 272 268 278 271 270 284 283 284 280 287 288 287 284 284 282 273 275 278 283
255 257 261 263 271 273 267 262 265 266 272 279 284 287 291 289 298 296 290 279 275 277 274 276 273 268 282 282 277 277 273 276 276 274 282 285 281 274 276 279 280 280 281
258 266 271 272 272 272 270 269 269 273 276 279 285 281 289 289 293 297 294 294 280 275 277 276 277 274 277 273 283 276 269 273 271 274 278 281 279 275 276 281 281 283 282
271 269 273 279 278 274 269 268 275 278 279 279 286 287 289 288 288 291 294 293 286 278 274 274 273 272 271 272 276 285 270 269 268 273 276 278 277 277 278 279 281 281 281
271 274 278 281 281 279 274 274 277 282 283 286 287 287 289 288 290 289 287 287 284 279 277 274 275 264 266 269 264 273 259 278 274 273 274 273 271 274 279 278 280 282 282
270 276 272 276 282 281 279 266 283 284 289 291 291 291 290 290 289 289 288 285 282 276 273 273 274 260 261 266 264 270 277 284 280 274 270 267 268 269 273 276 278 279 282
264 269 268 268 270 283 288 294 287 285 282 285 288 291 291 290 288 285 282 281 280 276 273 272 274 270 258 261 261 257 261 267 270 270 267 266 268 269 269 274 276 277 276
261 265 264 263 264 278 283 286 278 282 284 288 291 291 290 289 288 283 278 275 271 269 270 271 271 269 266 263 263 260 255 260 268 273 262 254 268 277 267 280 276 287 281
260 262 265 269 272 271 276 283 285 286 291 292 293 293 292 288 283 280 278 276 273 269 266 264 267 269 271 261 257 261 262 264 261 262 269 270 321 311 302 292 280 275 302
Height
3210 3212 3214 3218 3222 3227 3231 3228 3225 3227 3229 3226 3228 3227 3228 3230 3226 3224 3220 3218 3219 3219 3216 3213 3210 3208 3209 3209 3209 3209 3208 3209 3209 3210 3211 3211 3212 3214 3215 3216 3216 3217 3218
3210 3212 3215 3217 3221 3225 3229 3231 3232 3233 3230 3227 3229 3230 3232 3230 3227 3223 3219 3218 3223 3223 3220 3217 3213 3210 3209 3209 3210 3209 3208 3208 3208 3210 3211 3212 3212 3212 3213 3214 3215 3216 3217
3212 3213 3216 3219 3222 3223 3227 3230 3231 3232 3232 3232 3232 3232 3231 3232 3227 3226 3223 3225 3224 3224 3223 3220 3217 3215 3213 3211 3211 3211 3210 3209 3209 3209 3210 3211 3212 3212 3213 3214 3215 3216 3216
3213 3215 3217 3219 3220 3226 3227 3228 3229 3230 3231 3232 3231 3234 3234 3231 3230 3229 3228 3227 3227 3222 3226 3221 3221 3219 3217 3216 3214 3214 3212 3211 3210 3210 3211 3212 3213 3213 3214 3214 3215 3216 3216
3214 3216 3216 3218 3222 3225 3225 3225 3228 3228 3228 3231 3228 3231 3227 3228 3228 3230 3227 3229 3230 3225 3222 3222 3223 3222 3219 3218 3216 3215 3214 3213 3213 3212 3211 3212 3214 3214 3214 3214 3215 3215 3215
3214 3217 3218 3218 3220 3222 3223 3225 3226 3228 3229 3231 3229 3228 3225 3226 3227 3228 3230 3229 3226 3220 3222 3221 3223 3223 3220 3218 3216 3216 3215 3215 3214 3214 3213 3213 3213 3214 3214 3214 3214 3215 3215
3213 3217 3217 3218 3222 3223 3222 3224 3226 3226 3225 3227 3227 3226 3224 3224 3226 3226 3227 3226 3223 3223 3219 3222 3229 3226 3222 3220 3217 3215 3215 3215 3216 3215 3215 3214 3213 3214 3214 3214 3214 3214 3214
3213 3215 3218 3218 3221 3221 3225 3224 3224 3223 3218 3225 3226 3225 3223 3224 3225 3227 3229 3226 3224 3225 3227 3228 3224 3225 3225 3226 3223 3218 3215 3216 3216 3216 3215 3215 3214 3213 3213 3214 3214 3214 3214
3212 3214 3216 3217 3218 3220 3221 3223 3223 3224 3224 3226 3227 3227 3225 3225 3224 3226 3227 3227 3226 3223 3219 3219 3219 3213 3222 3225 3222 3220 3216 3215 3216 3216 3215 3215 3214 3213 3213 3213 3213 3213 3213
3211 3213 3215 3216 3219 3219 3221 3222 3223 3223 3224 3225 3226 3226 3226 3225 3225 3227 3226 3227 3228 3226 3224 3225 3219 3206 3219 3221 3224 3222 3216 3213 3216 3215 3215 3215 3215 3213 3213 3213 3213 3212 3212
3210 3212 3213 3215 3217 3217 3219 3220 3221 3218 3223 3223 3223 3223 3223 3223 3224 3224 3224 3226 3228 3228 3231 3228 3224 3221 3216 3205 3223 3223 3216 3213 3216 3215 3215 3215 3215 3214 3213 3212 3212 3211 3211
3209 3211 3212 3214 3215 3216 3216 3218 3218 3220 3221 3221 3222 3223 3222 3222 3221 3221 3220 3220 3222 3225 3230 3233 3227 3221 3214 3205 3220 3219 3215 3213 3215 3215 3215 3215 3215 3213 3211 3211 3211 3210 3210
3208 3209 3210 3212 3213 3214 3215 3216 3217 3218 3219 3219 3219 3220 3220 3221 3218 3218 3218 3216 3216 3218 3222 3228 3225 3223 3218 3217 3219 3216 3213 3213 3214 3214 3215 3215 3214 3213 3211 3210 3210 3209 3209
3204 3205 3207 3208 3210 3211 3213 3214 3215 3216 3216 3217 3217 3218 3218 3217 3217 3216 3217 3215 3214 3215 3215 3218 3221 3218 3217 3215 3215 3214 3212 3212 3213 3213 3214 3213 3213 3212 3210 3210 3209 3208 3207
3201 3201 3204 3205 3208 3209 3211 3213 3213 3214 3214 3215 3215 3215 3215 3215 3216 3215 3213 3214 3212 3212 3214 3215 3212 3211 3208 3210 3209 3211 3212 3212 3212 3212 3212 3211 3210 3209 3208 3208 3207 3207 3206
3201 3200 3201 3203 3205 3207 3209 3209 3210 3211 3212 3212 3212 3212 3212 3212 3212 3212 3212 3210 3211 3210 3209 3213 3212 3211 3209 3208 3205 3207 3210 3210 3209 3208 3208 3207 3207 3206 3205 3205 3204 3204 3203
3198 3200 3200 3201 3202 3204 3206 3207 3207 3208 3208 3209 3209 3209 3209 3209 3209 3209 3209 3208 3208 3207 3205 3207 3207 3206 3206 3206 3202 3204 3205 3205 3205 3204 3202 3203 3202 3202 3201 3201 3200 3200 3199
3194 3195 3197 3198 3199 3200 3202 3203 3203 3204 3204 3204 3205 3206 3206 3205 3205 3204 3203 3203 3202 3202 3201 3200 3202 3203 3201 3200 3200 3199 3200 3199 3200 3198 3197 3197 3198 3198 3197 3196 3196 3196 3195
3191 3192 3193 3195 3196 3197 3197 3199 3199 3200 3201 3201 3201 3200 3201 3201 3201 3199 3198 3197 3197 3196 3195 3195 3195 3195 3195 3193 3193 3192 3193 3192 3194 3195 3193 3193 3193 3192 3192 3192 3191 3191 3190
3187 3189 3190 3191 3192 3193 3194 3195 3195 3196 3196 3197 3197 3196 3196 3195 3195 3193 3192 3191 3191 3189 3189 3188 3188 3189 3189 3190 3186 3186 3186 3186 3186 3187 3187 3187 3187 3187 3186 3186 3186 3185 3184
3184 3185 3186 3187 3188 3188 3189 3190 3190 3191 3190 3190 3191 3190 3190 3190 3189 3188 3185 3184 3183 3183 3181 3181 3181 3182 3181 3182 3179 3179 3177 3177 3178 3180 3181 3182 3181 3181 3181 3180 3180 3179 3178
3179 3181 3182 3183 3183 3183 3181 3183 3183 3184 3184 3184 3184 3184 3184 3183 3181 3180 3178 3176 3175 3173 3173 3173 3174 3173 3174 3174 3174 3169 3162 3168 3169 3173 3174 3175 3174 3174 3173 3173 3173 3172 3171
3175 3175 3176 3177 3179 3176 3176 3168 3176 3176 3177 3178 3177 3176 3175 3174 3172 3169 3167 3165 3164 3164 3163 3163 3162 3164 3166 3169 3168 3162 3160 3160 3163 3166 3166 3165 3167 3166 3166 3166 3166 3165 3164
3170 3170 3171 3172 3173 3172 3171 3170 3171 3171 3171 3172 3170 3168 3165 3164 3162 3159 3155 3153 3153 3153 3155 3154 3152 3154 3156 3159 3159 3158 3156 3156 3157 3156 3155 3155 3157 3159 3158 3157 3158 3157 3156
3162 3164 3165 3166 3166 3167 3168 3167 3167 3166 3165 3164 3161 3158 3154 3151 3149 3147 3143 3141 3142 3143 3144 3144 3143 3144 3145 3147 3150 3150 3149 3149 3149 3146 3134 3138 3143 3147 3148 3147 3148 3149 3147
3155 3157 3157 3159 3160 3161 3161 3161 3161 3159 3156 3153 3150 3146 3142 3139 3135 3133 3131 3128 3128 3132 3131 3132 3131 3132 3134 3137 3139 3140 3142 3141 3142 3140 3143 3141 3131 3137 3139 3139 3141 3141 3137